Total_Precipitation_Accumulation
0.38 0.33 0.43 0.51 0.49 0.51 0.68 0.67 0.57 0.37 0.29 0.31 0.29 0.28 0.27 0.26 0.23 0.21 0.21 0.21 0.21 0.23 0.25 0.28 0.28 0.28 0.33 0.42 0.49 0.68 0.90 1.08 1.09 1.06 1.14 1.19 1.18 1.26 1.29 1.31 1.38 1.51 1.61 1.73
0.30 0.21 0.28 0.36 0.32 0.37 0.41 0.42 0.39 0.30 0.35 0.31 0.30 0.25 0.26 0.27 0.26 0.25 0.25 0.23 0.20 0.21 0.24 0.27 0.28 0.29 0.34 0.40 0.45 0.58 0.78 0.96 1.07 1.06 1.10 1.17 1.14 1.21 1.27 1.31 1.35 1.47 1.52 1.53
0.48 0.22 0.43 0.61 0.44 0.42 0.42 0.42 0.41 0.41 0.40 0.32 0.30 0.29 0.30 0.30 0.30 0.30 0.30 0.26 0.23 0.24 0.25 0.26 0.27 0.29 0.35 0.40 0.41 0.49 0.65 0.82 0.95 0.99 1.00 1.03 1.05 1.14 1.24 1.30 1.28 1.33 1.36 1.34
0.76 0.56 0.94 0.68 0.35 0.37 0.43 0.48 0.45 0.42 0.38 0.35 0.34 0.34 0.32 0.31 0.34 0.35 0.33 0.30 0.28 0.28 0.29 0.27 0.25 0.27 0.31 0.35 0.39 0.44 0.55 0.70 0.88 0.94 0.93 0.92 0.95 1.01 1.11 1.20 1.24 1.20 1.20 1.18
1.12 0.84 0.59 0.36 0.25 0.37 0.48 0.54 0.46 0.36 0.30 0.30 0.30 0.29 0.31 0.29 0.28 0.31 0.31 0.30 0.30 0.32 0.35 0.32 0.28 0.29 0.30 0.33 0.36 0.42 0.54 0.65 0.77 0.88 0.89 0.86 0.91 0.93 0.98 1.02 1.10 1.09 1.07 1.12
1.34 1.01 0.61 0.39 0.20 0.24 0.42 0.60 0.38 0.31 0.28 0.28 0.31 0.38 0.36 0.28 0.23 0.24 0.24 0.24 0.27 0.30 0.31 0.30 0.30 0.32 0.33 0.37 0.38 0.41 0.54 0.65 0.70 0.79 0.83 0.81 0.85 0.91 0.92 0.92 0.95 0.97 0.94 0.97
1.14 0.93 0.46 0.26 0.17 0.22 0.55 0.65 0.33 0.27 0.26 0.27 0.36 0.40 0.31 0.24 0.23 0.23 0.23 0.24 0.26 0.28 0.28 0.28 0.30 0.31 0.33 0.38 0.42 0.43 0.52 0.59 0.65 0.71 0.75 0.73 0.80 0.81 0.85 0.88 0.88 0.88 0.84 0.87
0.92 1.02 0.56 0.24 0.23 0.48 0.58 0.30 0.23 0.21 0.21 0.23 0.25 0.23 0.21 0.22 0.23 0.25 0.26 0.24 0.24 0.25 0.24 0.24 0.26 0.27 0.31 0.37 0.44 0.46 0.49 0.52 0.59 0.67 0.68 0.68 0.78 0.78 0.78 0.84 0.88 0.87 0.86 0.88
0.75 0.66 0.44 0.32 0.38 0.40 0.32 0.26 0.20 0.20 0.19 0.21 0.22 0.21 0.23 0.24 0.24 0.26 0.25 0.24 0.22 0.22 0.22 0.21 0.23 0.26 0.30 0.35 0.42 0.50 0.50 0.50 0.55 0.64 0.70 0.72 0.78 0.80 0.80 0.80 0.83 0.87 0.87 0.84
0.49 0.37 0.32 0.31 0.28 0.24 0.20 0.21 0.19 0.19 0.21 0.22 0.23 0.23 0.24 0.25 0.26 0.27 0.27 0.24 0.23 0.22 0.23 0.25 0.27 0.29 0.32 0.35 0.42 0.51 0.51 0.51 0.54 0.61 0.72 0.74 0.77 0.79 0.82 0.84 0.91 0.95 0.90 0.85
0.42 0.30 0.24 0.21 0.21 0.22 0.19 0.17 0.16 0.17 0.19 0.21 0.22 0.23 0.24 0.26 0.28 0.29 0.29 0.25 0.24 0.22 0.24 0.27 0.29 0.31 0.31 0.34 0.42 0.50 0.53 0.52 0.54 0.59 0.72 0.76 0.79 0.82 0.84 0.82 1.01 1.14 1.02 1.00
0.36 0.27 0.31 0.26 0.21 0.21 0.21 0.19 0.18 0.19 0.20 0.19 0.20 0.23 0.24 0.28 0.30 0.30 0.29 0.26 0.24 0.23 0.24 0.28 0.31 0.33 0.33 0.35 0.41 0.49 0.55 0.58 0.57 0.60 0.72 0.76 0.80 0.86 0.91 0.90 0.94 0.94 0.98 1.05
0.25 0.18 0.22 0.23 0.21 0.20 0.21 0.21 0.22 0.22 0.23 0.23 0.21 0.22 0.25 0.29 0.30 0.30 0.28 0.27 0.27 0.27 0.27 0.29 0.33 0.35 0.37 0.37 0.39 0.47 0.56 0.60 0.61 0.62 0.71 0.77 0.74 0.80 0.84 0.85 0.87 0.89 0.91 0.95
0.20 0.20 0.21 0.20 0.22 0.21 0.19 0.20 0.21 0.21 0.21 0.21 0.22 0.23 0.25 0.27 0.28 0.27 0.28 0.29 0.28 0.27 0.27 0.30 0.32 0.35 0.39 0.38 0.37 0.44 0.53 0.59 0.62 0.65 0.70 0.74 0.73 0.73 0.73 0.78 0.83 0.86 0.91 0.97
0.18 0.21 0.22 0.20 0.20 0.19 0.17 0.17 0.18 0.20 0.20 0.20 0.19 0.21 0.23 0.24 0.26 0.26 0.25 0.27 0.26 0.25 0.26 0.27 0.29 0.34 0.37 0.36 0.37 0.45 0.57 0.63 0.66 0.71 0.74 0.74 0.73 0.73 0.71 0.72 0.75 0.80 0.87 1.03
0.18 0.16 0.16 0.17 0.18 0.18 0.17 0.17 0.19 0.22 0.23 0.22 0.22 0.25 0.26 0.25 0.23 0.23 0.23 0.23 0.24 0.26 0.27 0.28 0.31 0.35 0.38 0.36 0.37 0.45 0.56 0.73 0.78 0.80 0.80 0.78 0.77 0.75 0.74 0.73 0.75 0.78 0.86 0.99
0.23 0.18 0.16 0.17 0.17 0.19 0.20 0.21 0.22 0.25 0.26 0.26 0.28 0.29 0.27 0.24 0.21 0.21 0.23 0.23 0.24 0.26 0.28 0.30 0.34 0.36 0.38 0.38 0.42 0.48 0.58 0.69 0.81 0.83 0.83 0.84 0.83 0.79 0.77 0.78 0.79 0.80 0.85 0.99
0.25 0.23 0.22 0.23 0.24 0.22 0.22 0.21 0.22 0.24 0.26 0.27 0.28 0.29 0.29 0.27 0.26 0.26 0.26 0.25 0.24 0.24 0.28 0.33 0.37 0.38 0.37 0.40 0.47 0.54 0.64 0.73 0.81 0.89 0.92 0.93 0.93 0.86 0.84 0.83 0.80 0.82 0.85 0.96
0.22 0.22 0.22 0.22 0.23 0.24 0.25 0.26 0.25 0.24 0.23 0.23 0.24 0.26 0.27 0.28 0.27 0.28 0.27 0.25 0.26 0.30 0.35 0.37 0.39 0.36 0.38 0.45 0.57 0.62 0.70 0.79 0.86 0.93 0.96 1.03 1.00 0.91 0.88 0.86 0.86 0.86 0.89 0.96
0.23 0.23 0.23 0.22 0.21 0.22 0.24 0.26 0.25 0.23 0.22 0.23 0.23 0.23 0.25 0.27 0.28 0.29 0.29 0.30 0.34 0.41 0.43 0.44 0.41 0.41 0.48 0.56 0.67 0.71 0.75 0.85 0.93 0.98 1.00 1.02 1.03 1.02 0.99 0.94 0.93 0.94 0.96 0.99
0.27 0.25 0.24 0.22 0.21 0.21 0.23 0.26 0.27 0.25 0.24 0.25 0.27 0.28 0.29 0.29 0.30 0.31 0.32 0.36 0.39 0.43 0.45 0.45 0.44 0.52 0.65 0.73 0.73 0.73 0.80 0.90 0.97 1.00 1.04 1.07 1.08 1.06 1.04 1.00 0.98 0.98 0.99 0.98
0.31 0.29 0.28 0.26 0.27 0.28 0.28 0.29 0.31 0.31 0.29 0.29 0.30 0.31 0.32 0.33 0.32 0.33 0.38 0.47 0.52 0.51 0.48 0.47 0.53 0.65 0.76 0.78 0.73 0.76 0.84 0.95 1.02 1.03 1.06 1.08 1.12 1.14 1.09 1.07 1.05 1.03 1.03 1.01
0.39 0.38 0.37 0.37 0.39 0.39 0.36 0.36 0.38 0.38 0.39 0.39 0.39 0.38 0.39 0.41 0.39 0.39 0.47 0.52 0.53 0.54 0.54 0.59 0.66 0.71 0.75 0.75 0.77 0.81 0.92 1.05 1.11 1.11 1.11 1.12 1.15 1.20 1.20 1.16 1.10 1.08 1.10 1.08
0.48 0.46 0.47 0.48 0.47 0.44 0.45 0.48 0.48 0.48 0.48 0.50 0.50 0.49 0.47 0.46 0.45 0.48 0.56 0.59 0.58 0.57 0.61 0.68 0.69 0.70 0.73 0.75 0.81 0.91 1.04 1.14 1.19 1.19 1.18 1.18 1.20 1.24 1.25 1.22 1.17 1.10 1.08 1.06
0.54 0.54 0.53 0.54 0.57 0.60 0.59 0.56 0.52 0.51 0.50 0.52 0.54 0.53 0.53 0.53 0.57 0.62 0.61 0.61 0.60 0.59 0.61 0.65 0.66 0.68 0.70 0.77 0.87 1.02 1.13 1.21 1.30 1.31 1.29 1.27 1.25 1.26 1.26 1.22 1.15 1.08 1.03 1.02
0.58 0.59 0.62 0.65 0.68 0.69 0.66 0.59 0.57 0.56 0.53 0.51 0.53 0.54 0.55 0.56 0.59 0.61 0.61 0.61 0.61 0.63 0.64 0.65 0.66 0.70 0.77 0.84 0.93 1.06 1.14 1.21 1.30 1.33 1.28 1.25 1.24 1.24 1.26 1.21 1.10 1.02 0.96 0.94
0.60 0.60 0.59 0.60 0.64 0.66 0.65 0.63 0.62 0.61 0.57 0.53 0.54 0.55 0.56 0.56 0.58 0.59 0.59 0.59 0.61 0.62 0.65 0.68 0.71 0.77 0.83 0.91 0.99 1.06 1.13 1.20 1.30 1.37 1.33 1.28 1.27 1.27 1.25 1.17 1.05 0.96 0.90 0.89